Bowling Green, KY

9:06 AM CDT on April 25, 2017 (GMT -0500)
Bowling Green-Warren County Regional

Weather History for KBWG - February, 2012

Change the Weather History Date:

Friday, February 3, 2012

  Actual Average Record
Temperature  
Mean Temperature 49 °F 37 °F  
Max Temperature 64 °F 47 °F 71 °F (1924)
Min Temperature 33 °F 27 °F -18 °F (1951)
Degree Days  
Heating Degree Days 16 28  
Month to date heating degree days 37 84  
Since 1 July heating degree days 2062 2576  
Cooling Degree Days 0 0  
Month to date cooling degree days 0 0  
Year to date cooling degree days 0 0  
Moisture  
Dew Point 36 °F    
Average Humidity 64    
Maximum Humidity 92    
Minimum Humidity 36    
Precipitation  
Precipitation 0.00 in 0.15 in 2.50 in (1923)
Month to date precipitation 0.64 0.44  
Year to date precipitation 4.45 4.05  
Snow  
Snow 0.00 in 0.20 in 3.00 in (1979)
Month to date snowfall 0.0 0.5  
Since 1 July snowfall 1.4 5.0  
Snow Depth 0.00 in    
Sea Level Pressure  
Sea Level Pressure 30.31 in    
Wind  
Wind Speed 3 mph (East)    
Max Wind Speed 12 mph    
Max Gust Speed 17 mph    
Visibility 10 miles    
Events      
T = Trace of Precipitation, MM = Missing Value Source: NWS Daily Summary

Daily Weather History Graph

Daily Weather History Graph

Search for Another Location

Airport or City:

Trip Planner

Search our weather history database for the weather conditions in past years. The results will help you decide how hot, cold, wet, or windy it might be!

Date:

Astronomy

Feb. 03, 2012 Rise Set
Actual Time 6:46 AM CST 5:12 PM CST
Civil Twilight 6:19 AM CST 5:39 PM CST
Nautical Twilight 5:48 AM CST 6:10 PM CST
Astronomical Twilight 5:18 AM CST 6:41 PM CST
Moon 1:16 PM CST (2/3) 3:18 AM CST (2/3)
Length of Visible Light 11h 20m
Length of Day
10h 25m
Waxing Gibbous, 82% of the Moon is Illuminated
Feb 3
Waxing Gibbous
Feb 7
Full
Feb 14
Last Quarter
Feb 21
New
Feb 29
First Quarter

Hourly Weather History & Observations

Time (CST) Temp. Windchill Dew Point Humidity Pressure Visibility Wind Dir Wind Speed Gust Speed Precip Events Conditions
12:53 AM 37.9 °F - 33.1 °F 83% 30.37 in 10.0 mi Calm Calm - N/A   Clear
1:53 AM 36.0 °F - 33.1 °F 89% 30.38 in 10.0 mi Calm Calm - N/A   Clear
2:53 AM 33.1 °F - 30.0 °F 89% 30.39 in 10.0 mi Calm Calm - N/A   Clear
3:53 AM 35.1 °F 32.2 °F 30.9 °F 85% 30.37 in 10.0 mi NE 3.5 mph - N/A   Clear
4:53 AM 35.1 °F 30.1 °F 32.0 °F 89% 30.34 in 10.0 mi NE 5.8 mph - N/A   Clear
5:53 AM 36.0 °F - 34.0 °F 93% 30.36 in 10.0 mi Calm Calm - N/A   Clear
6:53 AM 37.0 °F - 34.0 °F 89% 30.38 in 10.0 mi Calm Calm - N/A   Clear
7:53 AM 37.9 °F 35.5 °F 33.1 °F 83% 30.38 in 9.0 mi NE 3.5 mph - N/A   Clear
8:53 AM 46.9 °F - 37.9 °F 71% 30.37 in 10.0 mi ENE 5.8 mph - N/A   Clear
9:53 AM 52.0 °F - 37.0 °F 57% 30.37 in 10.0 mi ESE 6.9 mph - N/A   Clear
10:53 AM 55.9 °F - 36.0 °F 47% 30.34 in 10.0 mi ESE 8.1 mph - N/A   Clear
11:53 AM 60.1 °F - 36.0 °F 41% 30.33 in 10.0 mi ENE 4.6 mph - N/A   Clear
12:53 PM 62.1 °F - 35.1 °F 37% 30.30 in 10.0 mi Variable 6.9 mph - N/A   Clear
2:53 PM 63.0 °F - 36.0 °F 37% 30.27 in 10.0 mi South 8.1 mph - N/A   Clear
3:53 PM 62.1 °F - 37.9 °F 41% 30.27 in 10.0 mi SSW 3.5 mph - N/A   Clear
4:53 PM 57.9 °F - 39.0 °F 49% 30.27 in 10.0 mi Calm Calm - N/A   Scattered Clouds
5:53 PM 52.0 °F - 39.0 °F 61% 30.27 in 10.0 mi Calm Calm - N/A   Mostly Cloudy
6:53 PM 52.0 °F - 39.9 °F 63% 30.26 in 10.0 mi Calm Calm - N/A   Scattered Clouds
7:53 PM 53.1 °F - 42.1 °F 66% 30.26 in 10.0 mi Calm Calm - N/A   Overcast
8:53 PM 53.1 °F - 42.1 °F 66% 30.24 in 10.0 mi East 3.5 mph - N/A   Overcast
9:53 PM 52.0 °F - 39.9 °F 63% 30.22 in 10.0 mi Calm Calm - N/A   Overcast
10:53 PM 53.1 °F - 41.0 °F 64% 30.21 in 10.0 mi Calm Calm - N/A   Overcast
11:53 PM 52.0 °F - 41.0 °F 66% 30.20 in 10.0 mi Calm Calm - N/A   Overcast